Wetbulb
56.20 56.18 56.20 55.93 55.69 55.78 55.83 55.43 55.21 55.30 55.35 55.46 55.49 55.34 55.19 55.15 54.60 49.53 45.70 51.69 53.20 55.36 51.13 44.16 43.67 43.17 43.78 40.24 40.03 38.21 28.47 26.55 29.57 33.64 37.03 43.19 38.68 43.84 46.96 45.77 47.19 52.46 53.96 58.42 61.96
56.06 55.79 55.60 55.33 55.02 54.67 54.66 54.68 54.64 54.70 54.79 54.85 54.95 54.95 54.94 54.94 49.21 45.98 51.72 54.60 54.37 52.93 44.37 40.60 38.76 41.14 37.72 38.84 38.61 33.31 27.15 29.04 35.43 35.34 34.30 37.70 37.23 37.72 40.71 40.80 43.92 48.40 49.80 52.65 60.48
55.04 54.80 54.57 54.26 54.17 54.38 54.54 54.58 54.58 54.57 54.50 54.47 54.56 54.54 54.42 53.47 44.01 45.33 53.47 53.05 51.89 51.02 46.66 44.55 42.87 41.75 35.76 37.19 36.39 34.65 29.12 34.05 35.75 37.31 38.11 36.61 36.52 37.51 36.35 36.54 44.17 43.45 46.31 48.56 52.08
53.91 53.61 53.49 53.78 54.09 54.27 54.33 54.29 54.39 54.44 54.42 54.22 54.20 54.22 54.36 49.24 27.28 47.05 52.01 50.13 51.82 48.51 45.11 42.52 40.44 35.87 33.65 32.40 37.12 29.80 34.78 35.60 37.43 38.30 37.06 35.63 37.23 35.80 36.52 37.05 44.28 45.06 45.87 46.70 49.28
53.18 53.34 53.57 53.62 53.84 53.91 53.93 53.82 53.91 54.14 53.74 53.70 53.61 53.58 49.15 40.65 40.19 48.99 52.14 49.89 47.46 45.52 41.76 40.33 37.23 35.83 31.68 33.74 34.41 31.09 32.84 35.97 36.46 36.60 36.33 37.51 35.56 35.56 36.29 38.46 41.21 43.61 45.28 44.99 46.40
53.33 53.15 53.03 53.13 53.08 53.11 53.10 53.25 53.53 53.53 53.35 53.24 52.99 52.77 44.38 32.80 47.36 48.84 47.41 46.53 46.01 43.40 41.07 40.44 38.11 38.94 34.92 33.98 32.03 34.05 34.42 34.14 35.49 35.01 35.48 34.82 34.94 34.72 37.62 38.99 39.07 41.94 42.25 44.46 45.84
52.69 52.63 52.66 52.68 52.73 52.62 52.87 53.32 53.43 53.22 53.61 52.46 52.60 50.14 42.86 38.03 47.23 45.81 45.13 43.96 45.09 43.43 39.90 41.68 41.32 37.54 36.85 32.92 37.10 35.67 30.31 32.36 32.97 33.69 33.32 35.69 30.76 32.13 36.64 39.16 38.20 38.03 41.95 43.48 45.51
52.45 52.31 52.30 52.38 52.43 52.54 53.19 54.14 53.66 53.59 53.42 52.12 52.13 46.46 37.24 47.17 44.63 44.95 44.80 42.78 44.26 43.90 42.48 43.03 42.50 38.50 36.20 37.29 34.80 30.88 29.89 24.02 30.80 31.95 33.48 32.00 23.86 32.32 36.64 36.52 36.51 37.68 38.41 40.28 43.86
52.34 52.39 52.04 52.21 52.44 52.85 53.61 53.29 53.81 52.89 50.75 51.55 45.74 41.57 35.39 48.14 41.19 43.63 43.24 40.71 41.99 42.32 42.09 43.85 40.35 35.78 35.60 29.99 26.97 28.91 21.90 23.49 26.50 33.24 32.31 31.27 26.40 33.40 36.75 36.50 35.84 36.97 37.07 40.22 42.65
52.05 52.13 52.10 52.04 52.51 52.99 52.08 50.73 50.09 47.50 44.50 49.13 46.25 33.15 38.22 36.73 40.65 42.26 43.38 42.80 39.27 38.43 37.15 36.71 34.54 31.38 30.92 28.43 18.68 21.16 22.78 24.66 23.79 29.54 31.45 29.06 28.40 31.95 34.30 35.02 34.82 34.07 34.47 37.66 39.88
51.32 51.52 51.52 52.01 51.66 52.11 45.21 39.59 34.79 31.69 36.30 31.98 32.76 34.24 36.32 41.06 42.75 40.33 42.44 39.95 37.80 34.10 27.27 31.88 28.25 25.25 28.28 30.55 29.81 28.17 25.87 24.46 27.42 31.55 29.42 28.24 28.50 31.04 33.14 32.87 32.77 33.92 32.43 34.54 37.19
51.12 51.24 51.30 50.98 51.73 50.05 42.57 37.33 37.32 36.99 30.93 36.65 37.76 37.91 39.78 40.43 34.77 37.27 41.42 33.32 31.51 26.35 29.19 26.45 23.67 29.51 32.13 31.70 29.38 28.07 25.62 24.97 27.76 30.48 29.21 27.83 27.01 30.71 32.54 32.82 33.81 34.42 34.57 33.64 36.50
50.97 51.23 51.08 50.84 51.06 43.43 39.83 39.17 43.97 43.23 28.85 33.31 38.12 37.06 36.86 38.12 33.08 33.68 37.24 34.13 29.24 26.25 26.54 24.07 27.11 31.61 29.94 28.91 27.61 27.21 24.76 24.08 24.82 29.22 30.21 27.23 24.23 27.36 32.11 33.61 34.56 35.75 36.42 35.62 35.58
50.77 51.10 50.92 52.13 42.43 40.59 38.12 43.17 43.74 43.01 20.85 27.94 31.42 35.17 36.52 35.91 30.13 38.33 39.22 34.13 30.78 26.21 26.69 25.75 30.50 30.02 28.31 26.59 27.74 22.70 29.56 27.82 26.16 24.37 18.78 28.10 14.75 24.70 28.66 30.07 32.29 33.92 35.31 35.37 35.69
50.59 50.29 49.81 48.51 39.69 38.83 41.30 42.89 41.68 38.81 8.38 29.06 30.63 39.13 35.55 31.15 32.30 33.18 38.70 33.82 27.06 26.71 24.75 24.52 26.62 26.04 24.18 25.50 29.13 22.12 29.84 27.85 27.26 24.98 23.30 22.81 19.92 22.97 28.15 26.85 29.28 32.30 34.38 35.56 35.68
50.59 49.91 49.09 43.16 40.51 40.71 41.47 40.83 36.58 18.59 10.29 23.89 29.94 28.10 27.80 30.47 30.82 32.95 31.99 34.27 33.75 29.06 29.33 26.49 31.11 28.68 28.25 30.54 30.57 30.96 28.13 27.48 27.32 25.50 16.42 22.48 21.03 20.01 23.70 27.46 29.83 32.54 34.19 35.92 35.46
50.72 50.05 46.87 43.77 36.07 40.59 39.63 33.61 19.26 12.17 24.15 21.24 24.26 27.01 26.21 25.93 26.65 26.99 25.07 24.40 21.72 12.36 17.46 22.01 23.46 29.53 31.91 25.35 29.33 28.09 24.44 12.09 8.01 8.65 7.67 23.40 20.63 22.18 28.05 30.99 32.00 32.30 33.50 35.41 36.13
49.81 49.21 45.27 42.61 39.88 38.88 35.21 24.19 11.04 9.03 12.08 26.87 26.12 25.73 22.46 25.05 24.56 24.83 22.44 19.79 25.24 22.93 17.28 11.25 10.95 23.36 29.08 26.47 24.89 25.47 25.26 16.71 9.84 11.42 15.62 24.19 17.66 24.04 31.29 33.91 35.39 35.01 35.34 35.36 35.05
46.91 41.21 41.02 42.28 40.05 38.05 27.28 12.98 11.06 12.66 24.49 23.92 23.80 16.03 14.46 22.51 22.84 21.68 19.99 19.47 23.64 24.79 14.32 14.50 13.41 28.55 28.39 31.22 31.06 27.43 20.51 26.64 21.84 20.91 18.43 22.00 26.26 31.64 33.44 32.29 34.01 34.55 34.35 33.21 33.95
37.99 37.75 38.67 40.91 38.83 31.20 21.40 17.45 12.65 26.27 27.03 24.77 15.70 18.34 8.80 15.03 18.42 19.41 19.37 24.17 23.51 26.33 27.78 21.92 14.12 25.17 28.01 29.90 31.35 28.54 28.77 18.60 22.40 13.70 10.94 18.90 20.90 21.17 24.39 26.71 34.89 34.71 31.81 33.02 34.67
37.56 30.01 36.98 39.22 33.99 25.85 13.92 6.91 19.78 27.94 28.79 22.55 15.08 17.31 17.11 17.34 20.71 18.37 19.61 24.63 25.86 25.42 27.61 24.93 21.37 20.15 26.01 23.01 21.62 23.31 20.12 21.27 20.26 19.29 16.36 13.94 19.24 26.26 23.19 26.57 36.68 36.88 36.18 35.53 34.45
33.12 24.36 37.06 35.21 23.34 12.30 9.91 13.44 28.75 26.52 29.67 28.11 26.54 23.99 16.13 16.42 14.28 19.41 19.99 21.91 28.65 27.83 22.98 26.14 22.88 16.09 18.93 27.11 28.81 26.08 20.72 19.30 13.51 16.09 19.72 21.07 20.40 27.76 23.40 31.89 37.38 37.49 39.26 41.00 41.78
26.96 27.92 36.71 31.60 15.36 8.56 15.51 24.02 26.30 25.46 26.38 26.72 25.43 26.11 19.42 14.56 12.71 16.77 22.11 27.18 28.77 27.14 25.29 27.05 21.21 13.07 14.50 23.13 25.99 20.20 20.12 19.42 22.89 21.22 16.80 13.19 16.39 24.75 20.99 29.60 33.91 35.01 36.65 37.83 38.33
28.02 22.31 24.32 27.10 23.55 21.05 15.37 15.70 17.22 27.71 26.84 28.14 27.28 27.11 18.19 10.23 20.44 14.66 22.17 26.97 29.20 28.53 32.67 29.25 22.80 18.96 13.26 17.39 19.70 15.46 17.67 17.94 17.44 10.32 13.38 13.78 13.44 15.64 16.18 21.74 29.82 32.42 34.22 34.97 35.56
27.57 18.20 17.01 14.17 15.63 23.41 22.63 22.41 21.41 19.12 27.25 27.32 24.04 18.48 16.94 9.14 9.23 10.53 21.25 24.69 28.10 29.58 28.28 26.51 17.37 21.98 22.85 23.51 20.97 17.37 17.47 15.17 12.31 13.09 11.38 15.32 12.79 14.65 15.34 18.89 25.31 29.39 30.24 30.73 31.44
26.26 23.14 18.94 13.56 23.62 24.17 25.35 21.27 23.70 24.37 23.99 21.59 16.32 19.00 16.93 13.24 16.88 15.10 22.42 23.14 22.19 26.21 24.68 27.77 18.58 22.13 20.08 22.98 20.53 16.47 17.20 17.04 14.92 13.28 13.67 15.74 14.24 19.42 17.79 18.99 19.28 22.89 25.12 25.35 26.29
30.19 30.24 27.47 24.55 23.43 17.91 21.94 23.81 23.66 24.65 26.22 26.99 25.48 22.67 15.63 18.83 24.05 25.71 26.83 26.89 26.20 23.89 23.26 23.82 21.41 14.79 14.94 23.00 22.12 12.70 16.04 17.31 15.17 15.09 13.92 8.22 13.84 20.23 15.09 13.73 14.39 16.88 19.65 21.18 22.82
MSLP
1022.33 1022.17 1021.95 1021.64 1021.31 1021.24 1021.09 1020.73 1020.46 1020.23 1019.90 1019.58 1019.17 1018.91 1018.39 1018.24 1017.68 1017.26 1016.92 1016.90 1016.70 1016.33 1016.17 1016.07 1015.74 1015.65 1015.30 1015.31 1015.12 1014.99 1015.31 1013.97 1013.17 1012.15 1011.62 1010.42 1010.12 1009.10 1008.74 1008.57 1008.11 1007.31 1007.47 1006.98 1004.53
1022.50 1022.17 1022.07 1021.91 1021.41 1020.99 1020.76 1020.53 1020.34 1019.99 1019.59 1019.31 1019.05 1018.78 1018.44 1018.04 1018.12 1017.31 1016.76 1016.60 1016.53 1016.40 1016.43 1016.45 1016.33 1016.12 1016.06 1015.80 1015.46 1015.42 1015.05 1014.16 1013.39 1012.50 1012.03 1011.52 1010.84 1010.30 1009.65 1009.15 1008.61 1007.67 1007.38 1007.16 1006.87
1022.59 1022.33 1022.26 1022.03 1021.67 1021.19 1020.92 1020.42 1020.17 1019.95 1019.72 1019.45 1019.02 1018.76 1018.46 1018.09 1018.20 1017.24 1016.79 1016.72 1016.54 1016.35 1016.45 1016.52 1016.42 1016.39 1016.36 1016.12 1015.70 1015.34 1014.88 1014.37 1013.53 1012.72 1012.19 1011.68 1011.03 1010.53 1010.06 1009.35 1008.93 1008.83 1008.11 1007.90 1008.04
1022.63 1022.40 1022.27 1022.07 1021.58 1021.12 1020.79 1020.33 1019.82 1019.59 1019.31 1018.95 1018.79 1018.63 1018.40 1018.27 1018.16 1016.97 1016.68 1016.54 1016.35 1016.22 1016.24 1016.28 1016.38 1016.56 1016.61 1016.42 1015.93 1015.98 1014.88 1014.31 1013.52 1012.88 1012.58 1012.13 1011.52 1010.47 1010.05 1009.43 1009.34 1009.14 1008.58 1008.17 1007.85
1022.75 1022.59 1022.31 1022.05 1021.61 1021.08 1020.60 1020.19 1019.77 1019.40 1019.14 1018.86 1018.67 1018.48 1018.50 1018.39 1017.54 1016.43 1016.48 1016.31 1016.17 1016.13 1016.27 1016.43 1016.55 1016.50 1016.53 1016.15 1016.02 1015.63 1014.81 1014.09 1013.55 1012.95 1012.35 1011.91 1011.53 1011.07 1009.52 1009.65 1009.15 1008.93 1008.67 1008.15 1008.00
1022.87 1022.71 1022.46 1022.00 1021.47 1020.92 1020.39 1019.86 1019.49 1018.99 1018.67 1018.54 1018.38 1018.40 1018.66 1018.09 1016.52 1016.45 1016.50 1016.28 1016.10 1016.23 1016.28 1016.42 1016.40 1016.44 1016.32 1016.22 1016.21 1015.31 1014.97 1014.18 1013.32 1012.75 1012.30 1011.79 1011.09 1010.77 1009.45 1009.39 1009.04 1008.58 1008.32 1007.70 1007.23
1023.08 1022.76 1022.41 1021.86 1021.37 1020.80 1020.17 1019.65 1019.38 1018.79 1018.46 1018.34 1018.29 1018.40 1018.50 1017.42 1016.47 1016.53 1016.27 1016.20 1016.00 1016.02 1016.14 1016.04 1016.10 1016.43 1016.35 1016.17 1015.75 1015.62 1015.27 1014.15 1012.80 1012.30 1012.09 1011.47 1010.86 1009.86 1009.68 1008.73 1008.39 1008.24 1007.61 1007.01 1006.47
1023.10 1022.72 1022.25 1021.78 1021.21 1020.65 1019.84 1019.20 1018.89 1018.30 1018.16 1018.26 1018.27 1018.51 1017.91 1016.48 1016.40 1016.27 1016.05 1015.89 1015.59 1015.55 1015.76 1015.51 1015.63 1015.89 1016.03 1015.76 1015.76 1015.80 1015.41 1014.40 1011.57 1011.87 1011.33 1011.60 1010.19 1009.82 1009.37 1008.71 1007.95 1007.73 1007.58 1007.12 1006.42
1023.07 1022.74 1022.24 1021.78 1021.13 1020.49 1019.62 1018.78 1018.20 1017.89 1018.13 1018.30 1018.65 1018.51 1017.58 1016.32 1016.39 1016.25 1016.07 1016.00 1015.61 1015.24 1015.13 1015.14 1015.46 1015.72 1015.75 1015.97 1016.03 1015.56 1014.89 1014.02 1012.36 1011.87 1011.56 1011.34 1010.18 1009.58 1008.87 1008.34 1007.72 1007.27 1007.01 1006.55 1005.71
1023.11 1022.65 1022.19 1021.69 1021.24 1020.50 1019.63 1018.83 1018.33 1018.16 1018.49 1018.29 1018.52 1018.97 1017.51 1017.14 1016.80 1016.43 1015.84 1015.73 1015.65 1015.43 1015.51 1015.42 1015.56 1015.57 1015.69 1015.97 1015.30 1014.87 1014.47 1013.70 1012.55 1011.72 1011.74 1010.74 1010.10 1009.56 1008.72 1008.17 1007.56 1007.18 1006.85 1006.31 1005.42
1023.03 1022.59 1022.05 1021.67 1021.18 1020.56 1020.09 1019.45 1020.08 1019.78 1020.00 1020.03 1019.80 1019.29 1018.27 1017.41 1016.77 1016.32 1015.69 1015.53 1015.66 1015.93 1016.19 1015.73 1015.84 1015.17 1014.87 1014.92 1014.61 1014.40 1013.87 1013.01 1012.25 1011.36 1011.61 1010.36 1009.56 1008.73 1008.22 1007.72 1007.27 1006.65 1006.62 1006.11 1005.67
1023.03 1022.50 1022.04 1021.47 1021.13 1020.82 1020.96 1021.62 1022.24 1022.66 1021.51 1019.93 1019.52 1019.22 1018.36 1017.86 1017.14 1016.17 1015.78 1016.12 1016.10 1016.35 1016.34 1016.29 1015.30 1014.36 1014.39 1014.35 1014.29 1014.10 1013.38 1012.38 1011.76 1010.98 1011.05 1010.29 1009.15 1008.37 1007.67 1006.99 1006.70 1006.02 1005.79 1005.78 1005.35
1023.06 1022.55 1021.91 1021.35 1020.96 1021.49 1021.95 1022.33 1022.27 1022.21 1022.24 1019.87 1018.82 1018.52 1018.18 1018.03 1017.41 1016.56 1016.16 1016.05 1016.31 1016.38 1016.32 1016.14 1014.44 1014.07 1014.01 1014.05 1013.78 1013.45 1012.79 1012.00 1011.40 1010.77 1010.68 1010.52 1008.11 1007.63 1006.59 1006.08 1005.76 1005.15 1004.66 1004.95 1005.16
1023.10 1022.73 1022.14 1021.23 1021.35 1022.01 1022.25 1022.36 1022.23 1022.33 1022.35 1020.53 1018.85 1018.18 1018.14 1017.90 1017.58 1016.76 1016.19 1016.49 1016.44 1016.31 1015.88 1015.10 1013.95 1013.74 1013.58 1013.62 1013.55 1012.60 1011.56 1011.48 1011.21 1011.27 1010.16 1009.52 1007.49 1006.34 1005.42 1005.15 1004.91 1004.57 1004.14 1004.19 1004.36
1023.16 1022.82 1022.32 1021.58 1022.17 1022.49 1022.82 1022.42 1022.32 1022.77 1022.77 1020.76 1019.30 1018.26 1018.94 1019.33 1018.73 1017.20 1016.74 1016.49 1016.46 1016.67 1016.67 1015.10 1014.05 1013.37 1013.57 1013.41 1013.04 1012.15 1011.77 1011.49 1011.07 1010.52 1010.30 1009.39 1008.83 1004.27 1004.46 1004.26 1003.65 1003.45 1003.07 1003.31 1003.57
1023.05 1022.74 1022.43 1022.51 1022.52 1022.57 1022.60 1022.44 1022.73 1023.53 1023.61 1021.77 1020.64 1019.95 1020.31 1019.91 1019.37 1018.48 1017.88 1017.46 1016.93 1016.98 1016.41 1015.71 1014.37 1013.87 1013.87 1013.27 1012.60 1012.00 1011.56 1010.66 1010.27 1009.98 1009.13 1007.69 1007.70 1003.29 1003.66 1002.42 1002.71 1002.65 1002.46 1002.42 1003.10
1023.09 1022.92 1022.66 1022.70 1022.95 1022.60 1022.53 1022.83 1023.79 1025.28 1024.89 1023.53 1022.47 1022.06 1022.06 1021.42 1020.43 1020.02 1019.30 1019.05 1019.21 1018.54 1017.56 1016.04 1014.94 1014.18 1014.05 1013.13 1011.64 1011.74 1011.75 1011.02 1010.43 1009.87 1008.64 1006.86 1006.53 1003.79 1002.90 1002.32 1001.70 1001.32 1001.40 1001.58 1002.35
1022.72 1022.63 1022.72 1022.63 1022.75 1022.54 1022.84 1023.70 1026.06 1027.20 1026.47 1025.20 1024.30 1023.82 1023.58 1022.80 1021.82 1021.14 1020.62 1020.37 1020.22 1020.31 1019.41 1018.55 1016.04 1014.84 1014.31 1014.31 1013.03 1012.02 1011.89 1011.41 1010.48 1009.29 1007.87 1006.60 1005.30 1003.50 1003.07 1002.52 1001.43 1000.71 1000.63 1001.13 1001.80
1022.80 1023.02 1023.04 1022.81 1022.69 1022.72 1023.69 1026.37 1027.90 1027.77 1026.91 1026.31 1025.39 1025.45 1025.19 1024.30 1023.84 1022.63 1021.67 1021.29 1020.96 1020.83 1021.15 1019.71 1017.24 1015.11 1014.65 1013.93 1013.46 1012.19 1011.90 1010.84 1009.57 1008.39 1007.57 1005.72 1004.40 1002.95 1003.40 1002.83 1001.29 1000.42 1000.42 1000.89 1001.34
1023.46 1023.59 1023.25 1022.89 1022.78 1023.29 1025.00 1027.92 1028.40 1027.41 1026.82 1026.72 1027.43 1027.13 1026.95 1025.41 1024.78 1023.87 1022.54 1021.54 1021.09 1020.86 1021.07 1020.27 1018.42 1015.45 1014.47 1014.11 1013.53 1013.10 1012.79 1011.07 1010.02 1008.85 1007.53 1006.12 1005.76 1005.79 1004.49 1002.06 1000.25 999.94 1000.33 1000.71 1001.19
1023.87 1024.17 1023.19 1022.91 1023.01 1024.49 1027.82 1029.01 1028.05 1027.06 1026.66 1026.80 1027.45 1027.66 1027.46 1026.83 1025.71 1024.84 1023.43 1021.74 1021.33 1020.79 1020.80 1020.12 1019.49 1016.53 1015.58 1015.68 1015.23 1013.85 1013.68 1013.12 1012.30 1010.46 1008.27 1007.60 1007.34 1007.92 1007.16 1004.48 1002.10 1000.78 1000.82 1001.20 1001.45
1024.27 1024.61 1023.52 1023.02 1024.73 1027.65 1029.19 1028.61 1027.69 1026.96 1026.31 1026.35 1026.84 1027.39 1027.58 1027.37 1026.43 1025.48 1023.93 1022.65 1021.44 1021.60 1020.61 1020.30 1019.42 1018.02 1016.79 1016.31 1016.22 1015.87 1015.60 1014.71 1013.39 1011.42 1010.41 1009.52 1009.42 1009.28 1008.75 1005.67 1003.85 1002.82 1002.45 1002.19 1002.60
1025.37 1025.17 1024.09 1023.98 1026.45 1028.94 1029.14 1028.58 1027.70 1026.88 1026.33 1026.46 1026.75 1026.92 1027.70 1027.80 1027.31 1025.73 1024.04 1022.19 1021.62 1021.51 1021.01 1020.63 1019.70 1018.83 1017.15 1016.97 1016.74 1017.07 1016.75 1015.31 1013.69 1013.42 1013.34 1012.93 1012.27 1011.90 1010.51 1007.93 1006.54 1005.04 1004.53 1004.51 1004.55
1025.59 1025.97 1026.52 1026.84 1028.28 1028.69 1028.98 1028.70 1027.68 1026.58 1026.30 1026.44 1026.60 1026.85 1027.64 1027.71 1027.13 1025.86 1024.32 1022.31 1021.49 1021.23 1021.08 1020.91 1020.36 1019.97 1019.69 1019.44 1019.89 1019.04 1018.35 1017.57 1016.35 1016.35 1016.16 1016.62 1015.76 1014.60 1013.68 1011.59 1009.20 1008.10 1007.31 1006.94 1006.76
1026.23 1027.59 1028.54 1029.07 1029.06 1028.87 1028.52 1028.19 1027.66 1026.69 1026.04 1026.23 1026.48 1027.10 1027.95 1028.22 1027.30 1026.19 1024.34 1022.79 1021.47 1021.19 1021.38 1020.98 1020.59 1020.02 1019.39 1019.49 1020.18 1020.48 1020.15 1019.92 1019.37 1019.44 1018.82 1018.58 1018.04 1018.05 1017.09 1015.19 1013.00 1011.48 1010.25 1009.51 1009.82
1025.89 1027.23 1028.87 1029.24 1028.90 1028.66 1028.20 1027.81 1027.24 1026.70 1026.19 1026.43 1026.86 1026.72 1027.34 1027.63 1026.85 1025.88 1025.08 1023.89 1022.89 1021.63 1021.44 1021.21 1020.89 1020.39 1020.21 1020.00 1020.05 1020.77 1021.28 1021.47 1021.24 1020.83 1020.69 1020.17 1019.82 1020.43 1018.98 1017.80 1014.27 1014.40 1013.56 1013.24 1013.55
1025.47 1026.30 1027.12 1028.97 1028.77 1028.69 1027.87 1027.23 1026.83 1026.82 1025.93 1025.89 1026.13 1026.50 1026.42 1025.98 1025.73 1024.93 1024.76 1024.11 1023.44 1023.21 1022.12 1021.49 1021.31 1020.94 1020.39 1019.99 1019.83 1021.00 1022.30 1022.73 1023.43 1023.65 1023.19 1022.37 1022.97 1021.81 1021.32 1019.80 1019.20 1018.10 1016.97 1016.89 1016.97
Wind_Speed
8 8 9 9 9 11 11 12 13 14 14 15 16 17 18 21 22 5 3 1 1 8 7 7 6 7 7 4 3 2 3 5 6 2 6 8 8 3 4 3 5 5 5 13 14
8 8 9 10 10 10 11 12 13 14 15 15 16 17 19 20 7 3 2 2 4 8 5 6 7 8 3 3 4 3 4 5 6 5 4 8 7 8 6 8 5 6 13 17 11
9 10 11 12 12 13 14 13 14 15 16 16 16 17 18 15 3 2 3 4 7 7 2 2 4 2 3 2 4 4 5 6 10 11 8 5 9 3 6 4 3 6 12 11 10
9 10 10 12 13 14 15 16 15 15 16 16 16 15 16 2 3 3 4 2 8 5 3 5 5 5 3 5 3 6 8 8 6 7 9 10 5 9 10 11 6 7 9 6 9
10 10 11 13 15 16 17 18 16 15 16 17 16 11 5 4 6 5 6 4 4 3 3 3 3 2 4 5 8 7 10 8 10 14 13 11 9 12 19 8 8 5 7 11 9
10 11 13 14 16 18 19 19 16 15 16 14 11 4 2 2 3 1 4 5 4 1 3 2 4 4 8 5 7 4 10 15 14 14 10 13 14 6 12 6 8 10 11 12 12
10 12 13 15 17 20 22 21 18 16 15 10 7 1 2 9 2 6 4 3 3 3 5 4 4 2 3 6 6 5 13 17 19 11 8 6 12 18 7 14 13 9 12 12 15
10 12 14 16 18 20 21 22 20 16 8 6 1 1 6 5 3 4 4 6 6 7 4 7 7 8 8 5 4 7 5 7 14 3 7 7 17 8 10 14 19 14 9 11 15
11 12 15 16 17 19 22 23 11 5 1 2 1 2 8 7 3 5 5 5 6 7 6 7 4 8 3 5 8 7 8 10 17 5 9 7 10 7 10 15 18 16 10 11 14
11 13 15 17 17 18 21 13 9 6 6 1 2 1 3 6 5 7 6 6 7 6 6 1 3 4 1 6 9 6 7 9 12 1 9 18 17 11 9 9 14 10 8 9 11
11 14 16 17 18 14 11 6 9 7 8 1 6 5 6 7 6 4 8 5 3 2 4 5 5 12 12 14 18 15 19 21 19 16 12 18 18 17 12 10 13 13 6 7 8
12 15 17 18 17 7 5 7 4 4 8 4 7 6 7 5 8 11 2 4 3 7 6 4 12 17 12 15 16 17 18 19 14 14 11 15 17 16 14 13 13 17 14 8 7
12 15 18 17 7 6 5 3 4 2 2 8 5 3 7 4 6 10 2 3 4 7 6 9 17 18 13 11 13 13 17 20 19 14 9 8 23 18 20 16 15 17 16 8 10
13 15 16 18 6 2 3 5 3 2 4 7 6 3 6 7 2 8 3 3 8 7 10 9 7 9 18 16 14 14 11 14 17 14 10 8 11 15 9 15 17 17 17 11 10
11 15 16 8 1 3 5 6 3 3 7 14 7 2 12 4 8 4 6 5 8 8 1 10 23 18 15 9 12 10 11 12 13 13 11 14 10 12 9 14 18 19 20 15 9
10 12 12 4 2 0 6 4 4 9 7 9 6 10 13 5 5 7 6 7 4 6 8 16 14 2 1 15 14 15 13 16 14 7 8 12 11 13 12 21 11 16 18 16 9
10 11 5 1 3 5 4 3 8 10 6 11 9 11 13 8 8 8 9 7 7 8 16 10 6 3 4 12 7 1 5 5 5 1 7 3 10 15 11 10 18 18 18 17 10
11 7 3 1 4 4 3 8 12 5 6 5 7 11 5 10 4 12 8 6 7 2 9 6 11 6 9 4 7 8 3 3 5 4 3 4 7 5 5 11 15 16 17 12 9
8 3 2 3 4 3 6 9 8 7 3 7 11 5 6 5 2 8 4 3 3 9 4 6 8 3 11 4 9 6 10 16 8 4 4 4 5 7 15 19 18 11 11 9 8
2 2 3 7 4 5 8 3 3 4 2 4 1 2 4 6 8 7 6 2 6 8 9 4 9 4 10 6 2 5 10 8 4 4 4 2 4 9 26 28 17 7 9 8 8
3 4 4 6 5 7 5 7 5 4 1 4 4 5 6 6 3 4 5 7 4 13 14 6 4 8 8 6 10 9 9 5 6 6 3 4 1 15 25 25 10 11 6 1 5
3 3 3 3 7 3 3 6 4 4 1 2 3 6 5 4 5 3 5 2 8 13 10 3 4 6 10 6 2 8 15 6 4 5 4 3 3 21 28 21 13 13 13 16 17
2 2 3 4 5 3 5 4 3 3 1 1 4 4 1 4 5 4 4 5 10 14 5 8 3 6 9 2 11 8 24 19 3 2 11 6 7 22 28 22 17 18 19 18 20
3 4 6 6 1 6 2 3 6 3 2 3 5 3 4 4 4 7 8 8 17 8 4 11 3 3 3 4 7 13 23 23 13 5 8 10 15 26 29 25 23 19 23 23 24
4 2 4 2 4 1 3 3 2 5 0 1 4 3 2 5 4 4 5 15 6 3 7 4 3 5 8 3 7 20 16 23 22 16 9 13 14 22 23 20 18 19 25 29 29
5 5 2 2 1 1 1 2 1 5 2 5 3 4 6 6 7 9 12 4 5 6 7 3 3 3 2 7 5 16 19 17 18 20 10 13 14 19 19 17 27 25 26 27 26
1 2 5 3 1 4 3 3 2 1 3 6 6 6 2 8 8 14 12 14 15 9 5 4 3 4 4 3 1 6 21 10 14 18 11 11 11 16 18 25 25 23 24 25 24
Wind_Direction
20 13 7 6 3 356 351 351 350 347 346 346 345 343 339 334 333 327 45 91 31 356 352 328 360 339 331 305 261 128 277 270 261 245 291 325 0 348 310 252 328 297 3 323 153
22 21 7 358 355 351 350 349 346 343 342 343 339 337 335 334 321 306 228 290 16 3 2 1 335 338 325 281 300 182 220 252 224 331 305 297 314 316 331 321 295 309 349 1 341
27 18 5 351 346 351 346 345 342 338 338 335 331 332 332 334 323 259 299 348 349 349 266 268 275 342 292 310 259 296 251 309 308 300 293 287 299 249 294 288 119 338 322 337 317
26 13 358 347 347 346 338 336 334 329 329 326 323 325 330 339 7 219 236 302 327 343 335 335 350 333 262 274 283 328 273 276 284 326 322 312 278 283 238 261 255 295 294 294 324
18 5 356 347 343 337 331 328 331 328 326 320 318 323 8 3 254 218 227 251 313 4 357 334 308 295 248 276 303 254 271 297 306 299 291 286 280 274 279 288 270 286 291 296 279
13 1 352 345 339 335 327 322 325 324 321 328 328 334 85 306 252 58 276 289 255 249 251 266 247 264 264 256 227 286 308 296 295 283 279 269 268 267 272 298 277 280 279 272 271
6 356 346 345 341 334 326 321 322 320 315 323 322 103 255 240 280 329 340 275 246 211 244 229 232 222 298 293 268 277 305 296 278 276 251 286 277 257 295 293 278 256 280 285 274
358 349 345 345 340 334 328 320 319 306 306 326 307 89 249 257 285 335 333 292 271 253 213 231 228 233 212 247 300 272 242 279 273 239 245 173 262 274 279 273 279 272 252 264 269
355 346 345 344 340 336 328 324 336 12 107 289 75 113 279 310 354 304 314 281 285 270 262 261 219 230 210 229 278 216 267 242 284 207 264 202 277 280 259 253 262 268 264 256 266
351 345 341 343 338 340 332 337 22 30 343 173 274 339 290 306 288 296 265 262 268 304 336 220 221 242 243 208 259 239 238 246 256 211 309 292 282 273 276 264 262 271 261 261 253
346 342 343 341 343 350 344 11 13 352 36 228 282 257 284 281 291 283 283 298 299 33 299 251 248 249 252 232 245 263 265 270 268 277 276 264 271 274 261 261 276 276 249 266 280
344 339 340 343 347 23 17 71 158 230 318 290 250 254 267 264 307 304 343 308 346 292 301 309 259 273 267 272 278 282 293 283 274 271 247 275 275 274 266 253 245 265 268 228 260
338 340 338 341 357 46 83 63 290 272 242 294 246 286 292 325 288 298 353 281 268 285 278 268 268 298 295 299 288 265 267 272 269 286 273 278 273 275 263 248 244 253 254 213 214
341 341 342 333 55 320 64 329 332 94 62 308 351 22 358 291 277 300 276 297 319 284 282 272 266 276 307 294 282 284 279 277 270 266 264 192 283 265 254 239 239 246 254 238 210
341 342 345 29 221 44 310 337 332 61 38 308 323 330 340 339 300 295 323 324 271 293 36 280 305 310 313 298 305 254 307 291 279 259 270 236 252 257 221 236 233 228 240 248 210
335 342 349 6 30 21 326 335 60 41 310 335 341 331 349 310 301 310 331 342 290 304 284 284 296 248 309 300 276 270 281 270 255 236 243 226 207 271 221 228 244 234 239 236 188
328 331 351 359 311 327 348 52 38 93 348 310 326 344 333 311 317 6 334 11 29 348 340 330 302 289 32 309 320 109 286 309 354 349 231 272 202 253 293 263 233 231 228 226 200
323 323 329 139 324 358 49 45 62 237 248 345 322 320 322 2 333 329 334 356 46 354 307 342 328 11 337 318 275 312 286 267 277 227 245 173 241 250 28 335 290 244 228 220 202
343 354 357 311 340 63 66 50 197 212 268 339 328 9 319 328 269 339 334 300 50 34 26 321 280 274 300 349 339 340 355 291 257 212 256 218 280 292 355 310 298 258 212 206 187
48 10 308 327 13 59 69 206 211 235 346 63 358 96 299 297 342 356 324 320 331 23 33 274 290 307 336 352 303 319 347 325 339 287 268 277 284 349 334 329 335 173 170 195 193
43 34 267 346 58 45 104 224 265 257 249 126 221 291 257 299 280 301 283 298 24 347 336 276 237 293 328 5 320 346 345 337 279 258 283 317 77 354 339 326 5 52 89 49 215
80 14 321 33 50 41 113 194 238 279 309 293 219 233 232 306 292 278 278 278 350 351 322 305 287 293 310 282 297 14 348 326 263 340 327 285 50 358 345 329 40 59 76 71 84
94 252 348 74 86 331 310 290 261 269 243 9 275 201 159 264 323 242 285 273 314 338 336 352 321 318 347 0 8 8 359 356 307 254 17 14 329 344 348 357 28 63 65 72 77
87 36 334 38 99 129 129 300 308 273 249 245 262 305 2 324 243 281 297 302 319 323 7 334 277 252 264 331 349 2 12 8 15 23 324 30 343 347 350 355 24 45 63 65 65
21 229 177 285 335 113 115 173 284 334 257 295 300 218 151 300 309 248 265 317 302 21 352 345 281 311 312 211 52 33 15 15 24 1 28 347 9 5 354 354 13 44 59 60 58
136 131 344 176 214 191 360 243 273 300 165 279 198 261 191 217 193 288 316 338 281 323 331 337 294 319 346 144 92 41 19 25 24 6 354 357 31 14 357 8 29 30 49 53 55
144 56 102 306 81 86 228 238 223 338 250 233 275 313 258 234 240 260 259 258 262 297 306 314 306 354 301 242 70 16 13 16 33 24 342 10 335 338 7 27 24 24 38 45 46